,,PressureMeas_1m,,PRMeasQMR101_1,,RHStat155_1m_1,,SRMeasQMS101R_1m,,TAStat155_1m_1,,GenWind_1,,GenWind_1,
2019-09-21, 00:00:06,VALID,917.936,VALID,0.0,VALID,99.677,VALID,0.055,VALID,20.47,INVALID,360.0,VALID,0.0,
2019-09-21, 00:01:06,VALID,917.923,VALID,0.0,VALID,99.685,VALID,0.062,VALID,20.443,INVALID,360.0,VALID,0.0,
2019-09-21, 00:02:06,VALID,917.918,VALID,0.0,VALID,99.662,VALID,0.05,VALID,20.423,INVALID,360.0,VALID,0.0,
2019-09-21, 00:03:06,VALID,917.905,VALID,0.0,VALID,99.673,VALID,0.066,VALID,20.426,INVALID,360.0,VALID,0.0,
2019-09-21, 00:04:06,VALID,917.888,VALID,0.0,VALID,99.701,VALID,0.057,VALID,20.472,INVALID,360.0,VALID,0.0,
2019-09-21, 00:05:06,VALID,917.9,VALID,0.0,VALID,99.723,VALID,0.049,VALID,20.513,INVALID,360.0,VALID,0.0,
2019-09-21, 00:06:06,VALID,917.889,VALID,0.0,VALID,99.726,VALID,0.056,VALID,20.517,INVALID,360.0,VALID,0.0,
2019-09-21, 00:07:06,VALID,917.891,VALID,0.0,VALID,99.71,VALID,0.052,VALID,20.457,INVALID,360.0,VALID,0.0,
2019-09-21, 00:08:06,VALID,917.883,VALID,0.0,VALID,99.684,VALID,0.051,VALID,20.388,INVALID,360.0,VALID,0.0,
2019-09-21, 00:09:06,VALID,917.868,VALID,0.0,VALID,99.678,VALID,0.045,VALID,20.34,INVALID,360.0,VALID,0.0,
2019-09-21, 00:10:06,VALID,917.861,VALID,0.0,VALID,99.683,VALID,0.048,VALID,20.327,INVALID,360.0,VALID,0.0,
2019-09-21, 00:11:06,VALID,917.845,VALID,0.0,VALID,99.694,VALID,0.038,VALID,20.319,INVALID,360.0,VALID,0.0,
2019-09-21, 00:12:06,VALID,917.809,VALID,0.0,VALID,99.709,VALID,0.043,VALID,20.343,INVALID,360.0,VALID,0.0,
2019-09-21, 00:13:06,VALID,917.802,VALID,0.0,VALID,99.721,VALID,0.052,VALID,20.352,INVALID,360.0,VALID,0.0,
2019-09-21, 00:14:06,VALID,917.784,VALID,0.0,VALID,99.714,VALID,0.021,VALID,20.352,INVALID,360.0,VALID,0.0,
2019-09-21, 00:15:06,VALID,917.763,VALID,0.0,VALID,99.731,VALID,0.042,VALID,20.35,INVALID,360.0,VALID,0.0,
2019-09-21, 00:16:06,VALID,917.777,VALID,0.0,VALID,99.701,VALID,0.051,VALID,20.317,INVALID,360.0,VALID,0.0,
2019-09-21, 00:17:06,VALID,917.732,VALID,0.0,VALID,99.725,VALID,0.051,VALID,20.313,INVALID,360.0,VALID,0.0,
2019-09-21, 00:18:06,VALID,917.717,VALID,0.0,VALID,99.717,VALID,0.045,VALID,20.334,INVALID,360.0,VALID,0.0,
2019-09-21, 00:19:06,VALID,917.69,VALID,0.0,VALID,99.731,VALID,0.042,VALID,20.351,INVALID,360.0,VALID,0.0,
2019-09-21, 00:20:06,VALID,917.676,VALID,0.0,VALID,99.743,VALID,0.042,VALID,20.365,INVALID,360.0,VALID,0.0,
2019-09-21, 00:21:06,VALID,917.656,VALID,0.0,VALID,99.756,VALID,0.051,VALID,20.375,INVALID,360.0,VALID,0.0,
2019-09-21, 00:22:06,VALID,917.638,VALID,0.0,VALID,99.742,VALID,0.063,VALID,20.366,INVALID,360.0,VALID,0.0,
2019-09-21, 00:23:06,VALID,917.621,VALID,0.0,VALID,99.759,VALID,0.034,VALID,20.423,INVALID,360.0,VALID,0.0,
2019-09-21, 00:24:06,VALID,917.624,VALID,0.0,VALID,99.754,VALID,0.045,VALID,20.418,INVALID,360.0,VALID,0.0,
2019-09-21, 00:25:06,VALID,917.612,VALID,0.0,VALID,99.762,VALID,0.047,VALID,20.443,INVALID,360.0,VALID,0.0,
2019-09-21, 00:26:06,VALID,917.631,VALID,0.0,VALID,99.775,VALID,0.028,VALID,20.504,INVALID,360.0,VALID,0.0,
2019-09-21, 00:27:06,VALID,917.6,VALID,0.0,VALID,99.782,VALID,0.049,VALID,20.541,INVALID,360.0,VALID,0.0,
2019-09-21, 00:28:06,VALID,917.573,VALID,0.0,VALID,99.789,VALID,0.056,VALID,20.557,INVALID,360.0,VALID,0.0,
2019-09-21, 00:29:06,VALID,917.525,VALID,0.0,VALID,99.797,VALID,0.043,VALID,20.591,INVALID,360.0,VALID,0.0,
2019-09-21, 00:30:06,VALID,917.512,VALID,0.0,VALID,99.803,VALID,0.035,VALID,20.601,INVALID,360.0,VALID,0.0,
2019-09-21, 00:31:06,VALID,917.483,VALID,0.0,VALID,99.799,VALID,0.041,VALID,20.646,INVALID,360.0,VALID,0.0,
2019-09-21, 00:32:06,VALID,917.477,VALID,0.0,VALID,99.804,VALID,0.029,VALID,20.678,INVALID,360.0,VALID,0.0,
2019-09-21, 00:33:06,VALID,917.435,VALID,0.0,VALID,99.803,VALID,0.033,VALID,20.68,INVALID,360.0,VALID,0.0,
2019-09-21, 00:34:06,VALID,917.439,VALID,0.0,VALID,99.807,VALID,0.03,VALID,20.667,INVALID,360.0,VALID,0.0,
2019-09-21, 00:35:06,VALID,917.43,VALID,0.0,VALID,99.789,VALID,0.051,VALID,20.629,INVALID,360.0,VALID,0.0,
2019-09-21, 00:36:06,VALID,917.436,VALID,0.0,VALID,99.777,VALID,0.046,VALID,20.593,INVALID,360.0,VALID,0.0,
2019-09-21, 00:37:06,VALID,917.426,VALID,0.0,VALID,99.782,VALID,0.04,VALID,20.584,INVALID,360.0,VALID,0.0,
2019-09-21, 00:38:06,VALID,917.439,VALID,0.0,VALID,99.794,VALID,0.05,VALID,20.6,INVALID,360.0,VALID,0.0,
2019-09-21, 00:39:06,VALID,917.437,VALID,0.0,VALID,99.799,VALID,0.045,VALID,20.619,INVALID,360.0,VALID,0.0,
2019-09-21, 00:40:06,VALID,917.43,VALID,0.0,VALID,99.806,VALID,0.051,VALID,20.624,INVALID,360.0,VALID,0.0,
2019-09-21, 00:41:06,VALID,917.432,VALID,0.0,VALID,99.804,VALID,0.042,VALID,20.609,INVALID,360.0,VALID,0.0,
2019-09-21, 00:42:06,VALID,917.42,VALID,0.0,VALID,99.803,VALID,0.047,VALID,20.617,INVALID,360.0,VALID,0.0,
2019-09-21, 00:43:06,VALID,917.436,VALID,0.0,VALID,99.789,VALID,0.057,VALID,20.64,INVALID,360.0,VALID,0.0,
2019-09-21, 00:44:06,VALID,917.432,VALID,0.0,VALID,99.803,VALID,0.043,VALID,20.645,INVALID,360.0,VALID,0.0,
2019-09-21, 00:45:06,VALID,917.419,VALID,0.0,VALID,99.808,VALID,0.055,VALID,20.639,INVALID,360.0,VALID,0.0,
2019-09-21, 00:46:06,VALID,917.401,VALID,0.0,VALID,99.794,VALID,0.045,VALID,20.587,INVALID,360.0,VALID,0.0,
2019-09-21, 00:47:06,VALID,917.384,VALID,0.0,VALID,99.783,VALID,0.052,VALID,20.584,INVALID,360.0,VALID,0.0,
2019-09-21, 00:48:06,VALID,917.362,VALID,0.0,VALID,99.794,VALID,0.037,VALID,20.579,INVALID,360.0,VALID,0.0,
2019-09-21, 00:49:06,VALID,917.347,VALID,0.0,VALID,99.777,VALID,0.041,VALID,20.559,INVALID,360.0,VALID,0.0,
2019-09-21, 00:50:06,VALID,917.353,VALID,0.0,VALID,99.764,VALID,0.027,VALID,20.539,INVALID,360.0,VALID,0.0,
2019-09-21, 00:51:06,VALID,917.327,VALID,0.0,VALID,99.773,VALID,0.013,VALID,20.558,INVALID,360.0,VALID,0.0,
2019-09-21, 00:52:06,VALID,917.331,VALID,0.0,VALID,99.773,VALID,0.035,VALID,20.518,INVALID,360.0,VALID,0.0,
2019-09-21, 00:53:06,VALID,917.342,VALID,0.0,VALID,99.746,VALID,0.031,VALID,20.465,INVALID,360.0,VALID,0.0,
2019-09-21, 00:54:06,VALID,917.362,VALID,0.0,VALID,99.772,VALID,0.03,VALID,20.463,INVALID,360.0,VALID,0.0,
2019-09-21, 00:55:06,VALID,917.365,VALID,0.0,VALID,99.743,VALID,0.027,VALID,20.411,INVALID,360.0,VALID,0.0,
2019-09-21, 00:56:06,VALID,917.34,VALID,0.0,VALID,99.729,VALID,0.019,VALID,20.393,INVALID,360.0,VALID,0.0,
2019-09-21, 00:57:06,VALID,917.336,VALID,0.0,VALID,99.734,VALID,0.024,VALID,20.405,INVALID,360.0,VALID,0.0,
2019-09-21, 00:58:06,VALID,917.313,VALID,0.0,VALID,99.72,VALID,0.011,VALID,20.382,INVALID,360.0,VALID,0.0,
2019-09-21, 00:59:06,VALID,917.286,VALID,0.0,VALID,99.705,VALID,0.02,VALID,20.317,INVALID,360.0,VALID,0.0,
2019-09-21, 01:00:06,VALID,917.286,VALID,0.0,VALID,99.661,VALID,0.023,VALID,20.257,INVALID,360.0,VALID,0.0,
2019-09-21, 01:01:06,VALID,917.28,VALID,0.0,VALID,99.655,VALID,0.023,VALID,20.186,INVALID,360.0,VALID,0.0,
2019-09-21, 01:02:06,VALID,917.292,VALID,0.0,VALID,99.667,VALID,0.031,VALID,20.171,INVALID,360.0,VALID,0.0,
2019-09-21, 01:03:06,VALID,917.285,VALID,0.0,VALID,99.663,VALID,0.021,VALID,20.161,INVALID,360.0,VALID,0.0,
2019-09-21, 01:04:06,VALID,917.286,VALID,0.0,VALID,99.673,VALID,0.025,VALID,20.157,INVALID,360.0,VALID,0.0,
2019-09-21, 01:05:06,VALID,917.31,VALID,0.0,VALID,99.708,VALID,0.043,VALID,20.191,INVALID,360.0,VALID,0.0,
2019-09-21, 01:06:06,VALID,917.307,VALID,0.0,VALID,99.7,VALID,0.052,VALID,20.17,INVALID,360.0,VALID,0.0,
2019-09-21, 01:07:06,VALID,917.29,VALID,0.0,VALID,99.689,VALID,0.043,VALID,20.165,INVALID,360.0,VALID,0.0,
2019-09-21, 01:08:06,VALID,917.26,VALID,0.0,VALID,99.698,VALID,0.053,VALID,20.171,INVALID,360.0,VALID,0.0,
2019-09-21, 01:09:06,VALID,917.233,VALID,0.0,VALID,99.71,VALID,0.059,VALID,20.198,INVALID,360.0,VALID,0.0,
2019-09-21, 01:10:06,VALID,917.205,VALID,0.0,VALID,99.745,VALID,0.042,VALID,20.264,INVALID,360.0,VALID,0.0,
2019-09-21, 01:11:06,VALID,917.195,VALID,0.0,VALID,99.791,VALID,0.042,VALID,20.328,INVALID,360.0,VALID,0.0,
2019-09-21, 01:12:06,VALID,917.195,VALID,0.0,VALID,99.759,VALID,0.04,VALID,20.334,INVALID,360.0,VALID,0.0,
2019-09-21, 01:13:06,VALID,917.17,VALID,0.0,VALID,99.759,VALID,0.045,VALID,20.314,INVALID,360.0,VALID,0.0,
2019-09-21, 01:14:06,VALID,917.158,VALID,0.0,VALID,99.716,VALID,0.053,VALID,20.253,INVALID,360.0,VALID,0.0,
2019-09-21, 01:15:06,VALID,917.141,VALID,0.0,VALID,99.723,VALID,0.054,VALID,20.204,INVALID,360.0,VALID,0.0,
2019-09-21, 01:16:06,VALID,917.126,VALID,0.0,VALID,99.711,VALID,0.047,VALID,20.163,INVALID,360.0,VALID,0.0,
2019-09-21, 01:17:06,VALID,917.086,VALID,0.0,VALID,99.736,VALID,0.044,VALID,20.182,INVALID,360.0,VALID,0.0,
2019-09-21, 01:18:06,VALID,917.056,VALID,0.0,VALID,99.724,VALID,0.034,VALID,20.188,INVALID,360.0,VALID,0.0,
2019-09-21, 01:19:06,VALID,917.049,VALID,0.0,VALID,99.742,VALID,0.051,VALID,20.196,INVALID,360.0,VALID,0.0,
2019-09-21, 01:20:06,VALID,917.029,VALID,0.0,VALID,99.752,VALID,0.057,VALID,20.197,INVALID,360.0,VALID,0.0,
2019-09-21, 01:21:06,VALID,917.028,VALID,0.0,VALID,99.754,VALID,0.048,VALID,20.165,INVALID,360.0,VALID,0.0,
2019-09-21, 01:22:06,VALID,917.032,VALID,0.0,VALID,99.754,VALID,0.039,VALID,20.199,INVALID,360.0,VALID,0.0,
2019-09-21, 01:23:06,VALID,917.032,VALID,0.0,VALID,99.758,VALID,0.047,VALID,20.208,INVALID,360.0,VALID,0.0,
2019-09-21, 01:24:06,VALID,917.068,VALID,0.0,VALID,99.751,VALID,0.041,VALID,20.215,INVALID,360.0,VALID,0.0,
2019-09-21, 01:25:06,VALID,917.065,VALID,0.0,VALID,99.784,VALID,0.031,VALID,20.233,INVALID,360.0,VALID,0.0,
2019-09-21, 01:26:06,VALID,917.069,VALID,0.0,VALID,99.781,VALID,0.047,VALID,20.268,INVALID,360.0,VALID,0.0,
2019-09-21, 01:27:06,VALID,917.056,VALID,0.0,VALID,99.797,VALID,0.047,VALID,20.316,INVALID,360.0,VALID,0.0,
2019-09-21, 01:28:06,VALID,917.039,VALID,0.0,VALID,99.797,VALID,0.038,VALID,20.342,INVALID,360.0,VALID,0.0,
2019-09-21, 01:29:06,VALID,917.026,VALID,0.0,VALID,99.792,VALID,0.045,VALID,20.359,INVALID,360.0,VALID,0.0,
2019-09-21, 01:30:06,VALID,917.042,VALID,0.0,VALID,99.799,VALID,0.047,VALID,20.351,INVALID,360.0,VALID,0.0,
2019-09-21, 01:31:06,VALID,917.012,VALID,0.0,VALID,99.805,VALID,0.045,VALID,20.359,INVALID,360.0,VALID,0.0,
2019-09-21, 01:32:06,VALID,917.026,VALID,0.0,VALID,99.792,VALID,0.031,VALID,20.403,INVALID,360.0,VALID,0.0,
2019-09-21, 01:33:06,VALID,917.032,VALID,0.0,VALID,99.797,VALID,0.04,VALID,20.394,INVALID,360.0,VALID,0.0,
2019-09-21, 01:34:06,VALID,917.035,VALID,0.0,VALID,99.803,VALID,0.054,VALID,20.375,INVALID,360.0,VALID,0.0,
2019-09-21, 01:35:06,VALID,917.036,VALID,0.0,VALID,99.798,VALID,0.046,VALID,20.379,INVALID,360.0,VALID,0.0,
2019-09-21, 01:36:06,VALID,917.012,VALID,0.0,VALID,99.803,VALID,0.067,VALID,20.39,INVALID,360.0,VALID,0.0,
2019-09-21, 01:37:06,VALID,917.011,VALID,0.0,VALID,99.821,VALID,0.079,VALID,20.421,INVALID,360.0,VALID,0.0,
2019-09-21, 01:38:06,VALID,917.018,VALID,0.0,VALID,99.809,VALID,0.074,VALID,20.471,INVALID,360.0,VALID,0.0,
2019-09-21, 01:39:06,VALID,917.006,VALID,0.0,VALID,99.809,VALID,0.078,VALID,20.493,INVALID,360.0,VALID,0.0,
2019-09-21, 01:40:06,VALID,916.997,VALID,0.0,VALID,99.815,VALID,0.068,VALID,20.494,INVALID,360.0,VALID,0.0,
2019-09-21, 01:41:06,VALID,916.993,VALID,0.0,VALID,99.789,VALID,0.082,VALID,20.487,INVALID,360.0,VALID,0.0,
2019-09-21, 01:42:06,VALID,916.995,VALID,0.0,VALID,99.824,VALID,0.063,VALID,20.5,INVALID,360.0,VALID,0.0,
2019-09-21, 01:43:06,VALID,916.997,VALID,0.0,VALID,99.802,VALID,0.08,VALID,20.497,INVALID,360.0,VALID,0.0,
2019-09-21, 01:44:06,VALID,916.985,VALID,0.0,VALID,99.812,VALID,0.077,VALID,20.491,INVALID,360.0,VALID,0.0,
2019-09-21, 01:45:06,VALID,916.98,VALID,0.0,VALID,99.815,VALID,0.066,VALID,20.494,INVALID,360.0,VALID,0.0,
2019-09-21, 01:46:06,VALID,916.959,VALID,0.0,VALID,99.81,VALID,0.074,VALID,20.497,INVALID,360.0,VALID,0.0,
2019-09-21, 01:47:06,VALID,916.952,VALID,0.0,VALID,99.804,VALID,0.086,VALID,20.425,INVALID,360.0,VALID,0.0,
2019-09-21, 01:48:06,VALID,916.943,VALID,0.0,VALID,99.765,VALID,0.068,VALID,20.302,INVALID,360.0,VALID,0.0,
2019-09-21, 01:49:06,VALID,916.922,VALID,0.0,VALID,99.77,VALID,0.077,VALID,20.239,INVALID,360.0,VALID,0.0,
2019-09-21, 01:50:06,VALID,916.927,VALID,0.0,VALID,99.759,VALID,0.059,VALID,20.2,INVALID,360.0,VALID,0.0,
2019-09-21, 01:51:06,VALID,916.917,VALID,0.0,VALID,99.751,VALID,0.04,VALID,20.159,INVALID,360.0,VALID,0.0,
2019-09-21, 01:52:06,VALID,916.915,VALID,0.0,VALID,99.766,VALID,0.038,VALID,20.142,INVALID,360.0,VALID,0.0,
2019-09-21, 01:53:06,VALID,916.923,VALID,0.0,VALID,99.747,VALID,0.027,VALID,20.126,INVALID,360.0,VALID,0.0,
2019-09-21, 01:54:06,VALID,916.912,VALID,0.0,VALID,99.749,VALID,0.034,VALID,20.069,INVALID,360.0,VALID,0.0,
2019-09-21, 01:55:06,VALID,916.916,VALID,0.0,VALID,99.753,VALID,0.055,VALID,20.071,INVALID,360.0,VALID,0.0,
2019-09-21, 01:56:06,VALID,916.897,VALID,0.0,VALID,99.754,VALID,0.042,VALID,20.087,INVALID,360.0,VALID,0.0,
2019-09-21, 01:57:06,VALID,916.909,VALID,0.0,VALID,99.757,VALID,0.037,VALID,20.088,INVALID,360.0,VALID,0.0,
2019-09-21, 01:58:06,VALID,916.91,VALID,0.0,VALID,99.751,VALID,0.048,VALID,20.083,INVALID,360.0,VALID,0.0,
2019-09-21, 01:59:06,VALID,916.912,VALID,0.0,VALID,99.749,VALID,0.048,VALID,20.084,INVALID,360.0,VALID,0.0,
2019-09-21, 02:00:06,VALID,916.909,VALID,0.0,VALID,99.756,VALID,0.047,VALID,20.088,INVALID,360.0,VALID,0.0,
2019-09-21, 02:01:06,VALID,916.914,VALID,0.0,VALID,99.737,VALID,0.044,VALID,20.048,INVALID,360.0,VALID,0.0,
2019-09-21, 02:02:06,VALID,916.915,VALID,0.0,VALID,99.724,VALID,0.044,VALID,20.005,INVALID,360.0,VALID,0.0,
2019-09-21, 02:03:06,VALID,916.898,VALID,0.0,VALID,99.719,VALID,0.059,VALID,19.968,INVALID,360.0,VALID,0.0,
2019-09-21, 02:04:06,VALID,916.911,VALID,0.0,VALID,99.721,VALID,0.051,VALID,19.938,INVALID,360.0,VALID,0.0,
2019-09-21, 02:05:06,VALID,916.891,VALID,0.0,VALID,99.701,VALID,0.045,VALID,19.878,INVALID,360.0,VALID,0.0,
2019-09-21, 02:06:06,VALID,916.908,VALID,0.0,VALID,99.712,VALID,0.048,VALID,19.876,INVALID,360.0,VALID,0.0,
2019-09-21, 02:07:06,VALID,916.899,VALID,0.0,VALID,99.727,VALID,0.048,VALID,19.905,INVALID,360.0,VALID,0.0,
2019-09-21, 02:08:06,VALID,916.912,VALID,0.0,VALID,99.746,VALID,0.05,VALID,19.949,INVALID,360.0,VALID,0.0,
2019-09-21, 02:09:06,VALID,916.922,VALID,0.0,VALID,99.76,VALID,0.042,VALID,19.974,INVALID,360.0,VALID,0.0,
2019-09-21, 02:10:06,VALID,916.95,VALID,0.0,VALID,99.752,VALID,0.036,VALID,19.962,INVALID,360.0,VALID,0.0,
2019-09-21, 02:11:06,VALID,916.957,VALID,0.0,VALID,99.767,VALID,0.044,VALID,19.966,INVALID,360.0,VALID,0.0,
2019-09-21, 02:12:06,VALID,916.98,VALID,0.0,VALID,99.76,VALID,0.045,VALID,19.918,INVALID,360.0,VALID,0.0,
2019-09-21, 02:13:06,VALID,917.0,VALID,0.0,VALID,99.756,VALID,0.049,VALID,19.9,INVALID,360.0,VALID,0.0,
2019-09-21, 02:14:06,VALID,917.001,VALID,0.0,VALID,99.75,VALID,0.053,VALID,19.888,INVALID,360.0,VALID,0.0,
2019-09-21, 02:15:06,VALID,917.009,VALID,0.0,VALID,99.747,VALID,0.062,VALID,19.879,INVALID,360.0,VALID,0.0,
2019-09-21, 02:16:06,VALID,917.007,VALID,0.0,VALID,99.761,VALID,0.064,VALID,19.891,INVALID,360.0,VALID,0.0,
2019-09-21, 02:17:06,VALID,917.01,VALID,0.0,VALID,99.768,VALID,0.037,VALID,19.925,INVALID,360.0,VALID,0.0,
2019-09-21, 02:18:06,VALID,916.996,VALID,0.0,VALID,99.793,VALID,0.048,VALID,19.968,INVALID,360.0,VALID,0.0,
2019-09-21, 02:19:06,VALID,916.999,VALID,0.0,VALID,99.809,VALID,0.055,VALID,20.04,VALID,46.0,VALID,0.0,
2019-09-21, 02:20:06,VALID,916.971,VALID,0.0,VALID,99.81,VALID,0.048,VALID,20.078,INVALID,360.0,VALID,0.0,
2019-09-21, 02:21:06,VALID,916.979,VALID,0.0,VALID,99.811,VALID,0.045,VALID,20.106,INVALID,360.0,VALID,0.0,
2019-09-21, 02:22:06,VALID,916.946,VALID,0.0,VALID,99.827,VALID,0.058,VALID,20.143,VALID,45.0,VALID,0.0,
2019-09-21, 02:23:06,VALID,916.928,VALID,0.0,VALID,99.824,VALID,0.055,VALID,20.152,INVALID,360.0,VALID,0.0,
2019-09-21, 02:24:06,VALID,916.9,VALID,0.0,VALID,99.826,VALID,0.061,VALID,20.157,INVALID,360.0,VALID,0.0,
2019-09-21, 02:25:06,VALID,916.883,VALID,0.0,VALID,99.83,VALID,0.043,VALID,20.159,INVALID,360.0,VALID,0.0,
2019-09-21, 02:26:06,VALID,916.873,VALID,0.0,VALID,99.826,VALID,0.058,VALID,20.168,INVALID,360.0,VALID,0.0,
2019-09-21, 02:27:06,VALID,916.86,VALID,0.0,VALID,99.825,VALID,0.06,VALID,20.179,VALID,45.0,VALID,0.0,
2019-09-21, 02:28:06,VALID,916.862,VALID,0.0,VALID,99.856,VALID,0.072,VALID,20.228,INVALID,360.0,VALID,0.0,
2019-09-21, 02:29:06,VALID,916.863,VALID,0.0,VALID,99.856,VALID,0.079,VALID,20.288,INVALID,360.0,VALID,0.0,
2019-09-21, 02:30:06,VALID,916.849,VALID,0.0,VALID,99.868,VALID,0.062,VALID,20.336,INVALID,360.0,VALID,0.0,
2019-09-21, 02:31:06,VALID,916.851,VALID,0.0,VALID,99.851,VALID,0.052,VALID,20.354,INVALID,360.0,VALID,0.0,
2019-09-21, 02:32:06,VALID,916.831,VALID,0.0,VALID,99.845,VALID,0.079,VALID,20.333,INVALID,360.0,VALID,0.0,
2019-09-21, 02:33:06,VALID,916.81,VALID,0.0,VALID,99.833,VALID,0.061,VALID,20.329,INVALID,360.0,VALID,0.0,
2019-09-21, 02:34:06,VALID,916.79,VALID,0.0,VALID,99.858,VALID,0.068,VALID,20.322,VALID,45.0,VALID,0.0,
2019-09-21, 02:35:06,VALID,916.758,VALID,0.0,VALID,99.835,VALID,0.054,VALID,20.302,INVALID,360.0,VALID,0.0,
2019-09-21, 02:36:06,VALID,916.738,VALID,0.0,VALID,99.844,VALID,0.033,VALID,20.285,INVALID,360.0,VALID,0.0,
2019-09-21, 02:37:06,VALID,916.707,VALID,0.0,VALID,99.857,VALID,0.023,VALID,20.281,INVALID,360.0,VALID,0.0,
2019-09-21, 02:38:06,VALID,916.682,VALID,0.0,VALID,99.844,VALID,0.021,VALID,20.267,INVALID,360.0,VALID,0.0,
2019-09-21, 02:39:06,VALID,916.643,VALID,0.0,VALID,99.852,VALID,0.017,VALID,20.218,INVALID,360.0,VALID,0.0,
2019-09-21, 02:40:06,VALID,916.639,VALID,0.0,VALID,99.866,VALID,0.029,VALID,20.186,INVALID,360.0,VALID,0.0,
2019-09-21, 02:41:06,VALID,916.627,VALID,0.0,VALID,99.844,VALID,0.021,VALID,20.152,INVALID,360.0,VALID,0.0,
2019-09-21, 02:42:06,VALID,916.63,VALID,0.0,VALID,99.835,VALID,0.024,VALID,20.128,INVALID,360.0,VALID,0.0,
2019-09-21, 02:43:06,VALID,916.624,VALID,0.0,VALID,99.856,VALID,0.021,VALID,20.107,INVALID,360.0,VALID,0.0,
2019-09-21, 02:44:06,VALID,916.616,VALID,0.0,VALID,99.835,VALID,0.018,VALID,20.096,INVALID,360.0,VALID,0.0,
2019-09-21, 02:45:06,VALID,916.587,VALID,0.0,VALID,99.878,VALID,0.021,VALID,20.099,INVALID,360.0,VALID,0.0,
2019-09-21, 02:46:06,VALID,916.56,VALID,0.0,VALID,99.85,VALID,0.016,VALID,20.101,INVALID,360.0,VALID,0.0,
2019-09-21, 02:47:06,VALID,916.564,VALID,0.0,VALID,99.856,VALID,0.001,VALID,20.094,INVALID,360.0,VALID,0.0,
2019-09-21, 02:48:06,VALID,916.547,VALID,0.0,VALID,99.86,VALID,0.012,VALID,20.073,INVALID,360.0,VALID,0.0,
2019-09-21, 02:49:06,VALID,916.539,VALID,0.0,VALID,99.847,VALID,0.017,VALID,20.033,INVALID,360.0,VALID,0.0,
2019-09-21, 02:50:06,VALID,916.555,VALID,0.0,VALID,99.851,VALID,0.032,VALID,20.004,INVALID,360.0,VALID,0.0,
2019-09-21, 02:51:06,VALID,916.55,VALID,0.0,VALID,99.843,VALID,0.044,VALID,19.954,INVALID,360.0,VALID,0.0,
2019-09-21, 02:52:06,VALID,916.544,VALID,0.0,VALID,99.857,VALID,0.042,VALID,19.961,INVALID,360.0,VALID,0.0,
2019-09-21, 02:53:06,VALID,916.545,VALID,0.0,VALID,99.859,VALID,0.063,VALID,19.997,INVALID,360.0,VALID,0.0,
2019-09-21, 02:54:06,VALID,916.56,VALID,0.0,VALID,99.866,VALID,0.046,VALID,20.04,INVALID,360.0,VALID,0.0,
2019-09-21, 02:55:06,VALID,916.561,VALID,0.0,VALID,99.873,VALID,0.049,VALID,20.044,INVALID,360.0,VALID,0.0,
2019-09-21, 02:56:06,VALID,916.56,VALID,0.0,VALID,99.877,VALID,0.046,VALID,20.044,INVALID,360.0,VALID,0.0,
2019-09-21, 02:57:06,VALID,916.551,VALID,0.0,VALID,99.872,VALID,0.046,VALID,20.044,INVALID,360.0,VALID,0.0,
2019-09-21, 02:58:06,VALID,916.575,VALID,0.0,VALID,99.863,VALID,0.058,VALID,20.032,INVALID,360.0,VALID,0.0,
2019-09-21, 02:59:06,VALID,916.571,VALID,0.0,VALID,99.87,VALID,0.04,VALID,20.023,VALID,97.0,VALID,0.0,
2019-09-21, 03:00:06,VALID,916.576,VALID,0.0,VALID,99.876,VALID,0.045,VALID,20.038,VALID,85.0,VALID,0.0,
2019-09-21, 03:01:06,VALID,916.587,VALID,0.0,VALID,99.882,VALID,0.037,VALID,20.042,VALID,76.0,VALID,0.0,
2019-09-21, 03:02:06,VALID,916.579,VALID,0.0,VALID,99.872,VALID,0.053,VALID,20.031,VALID,71.0,VALID,0.0,
2019-09-21, 03:03:06,VALID,916.58,VALID,0.0,VALID,99.877,VALID,0.038,VALID,20.032,VALID,51.0,VALID,0.0,
2019-09-21, 03:04:06,VALID,916.58,VALID,0.0,VALID,99.875,VALID,0.041,VALID,20.048,VALID,50.0,VALID,0.0,
2019-09-21, 03:05:06,VALID,916.575,VALID,0.0,VALID,99.87,VALID,0.039,VALID,20.039,VALID,50.0,VALID,0.0,
2019-09-21, 03:06:06,VALID,916.559,VALID,0.0,VALID,99.859,VALID,0.031,VALID,20.025,VALID,53.0,VALID,0.0,
2019-09-21, 03:07:06,VALID,916.546,VALID,0.0,VALID,99.865,VALID,0.047,VALID,20.038,VALID,59.0,VALID,0.0,
2019-09-21, 03:08:06,VALID,916.531,VALID,0.0,VALID,99.859,VALID,0.047,VALID,20.009,VALID,73.0,VALID,0.0,
2019-09-21, 03:09:06,VALID,916.522,VALID,0.0,VALID,99.876,VALID,0.048,VALID,19.981,VALID,73.0,VALID,0.0,
2019-09-21, 03:10:06,VALID,916.519,VALID,0.0,VALID,99.876,VALID,0.047,VALID,19.973,VALID,81.0,VALID,0.0,
2019-09-21, 03:11:06,VALID,916.505,VALID,0.0,VALID,99.9,VALID,0.04,VALID,19.997,VALID,88.0,VALID,0.0,
2019-09-21, 03:12:06,VALID,916.491,VALID,0.0,VALID,99.866,VALID,0.069,VALID,20.01,VALID,88.0,VALID,0.0,
2019-09-21, 03:13:06,VALID,916.511,VALID,0.0,VALID,99.884,VALID,0.065,VALID,20.024,VALID,88.0,VALID,0.0,
2019-09-21, 03:14:06,VALID,916.491,VALID,0.0,VALID,99.882,VALID,0.054,VALID,20.027,VALID,97.0,VALID,0.0,
2019-09-21, 03:15:06,VALID,916.489,VALID,0.0,VALID,99.895,VALID,0.047,VALID,20.029,VALID,102.0,VALID,0.0,
2019-09-21, 03:16:06,VALID,916.465,VALID,0.0,VALID,99.875,VALID,0.052,VALID,20.039,VALID,107.0,VALID,0.0,
2019-09-21, 03:17:06,VALID,916.458,VALID,0.0,VALID,99.902,VALID,0.038,VALID,20.082,VALID,114.0,VALID,0.0,
2019-09-21, 03:18:06,VALID,916.448,VALID,0.0,VALID,99.899,VALID,0.063,VALID,20.12,VALID,111.0,VALID,0.0,
2019-09-21, 03:19:06,VALID,916.446,VALID,0.0,VALID,99.91,VALID,0.055,VALID,20.134,VALID,116.0,VALID,0.0,
2019-09-21, 03:20:06,VALID,916.417,VALID,0.0,VALID,99.886,VALID,0.053,VALID,20.105,VALID,126.0,VALID,0.0,
2019-09-21, 03:21:06,VALID,916.426,VALID,0.0,VALID,99.882,VALID,0.024,VALID,20.094,VALID,128.0,VALID,0.0,
2019-09-21, 03:22:06,VALID,916.431,VALID,0.0,VALID,99.897,VALID,0.044,VALID,20.12,VALID,132.0,VALID,0.0,
2019-09-21, 03:23:06,VALID,916.449,VALID,0.0,VALID,99.902,VALID,0.02,VALID,20.12,VALID,125.0,VALID,0.0,
2019-09-21, 03:24:06,VALID,916.445,VALID,0.0,VALID,99.903,VALID,0.028,VALID,20.098,VALID,112.0,VALID,0.0,
2019-09-21, 03:25:06,VALID,916.463,VALID,0.0,VALID,99.894,VALID,0.039,VALID,20.074,VALID,99.0,VALID,0.0,
2019-09-21, 03:26:06,VALID,916.456,VALID,0.0,VALID,99.889,VALID,0.027,VALID,20.059,VALID,94.0,VALID,0.0,
2019-09-21, 03:27:06,VALID,916.456,VALID,0.0,VALID,99.882,VALID,0.038,VALID,20.037,VALID,97.0,VALID,0.0,
2019-09-21, 03:28:06,VALID,916.443,VALID,0.0,VALID,99.887,VALID,0.04,VALID,20.017,VALID,102.0,VALID,0.0,
2019-09-21, 03:29:06,VALID,916.422,VALID,0.0,VALID,99.893,VALID,0.046,VALID,20.002,VALID,109.0,VALID,0.0,
2019-09-21, 03:30:06,VALID,916.41,VALID,0.0,VALID,99.888,VALID,0.029,VALID,19.992,VALID,112.0,VALID,0.0,
2019-09-21, 03:31:06,VALID,916.416,VALID,0.0,VALID,99.905,VALID,0.044,VALID,19.99,VALID,116.0,VALID,0.0,
2019-09-21, 03:32:06,VALID,916.405,VALID,0.0,VALID,99.91,VALID,0.029,VALID,19.992,VALID,120.0,VALID,0.0,
2019-09-21, 03:33:06,VALID,916.417,VALID,0.0,VALID,99.908,VALID,0.036,VALID,20.011,VALID,128.0,VALID,0.0,
2019-09-21, 03:34:06,VALID,916.407,VALID,0.0,VALID,99.898,VALID,0.017,VALID,20.014,VALID,134.0,VALID,0.0,
2019-09-21, 03:35:06,VALID,916.419,VALID,0.0,VALID,99.896,VALID,0.039,VALID,20.03,VALID,129.0,VALID,0.0,
2019-09-21, 03:36:06,VALID,916.435,VALID,0.0,VALID,99.893,VALID,0.044,VALID,20.033,VALID,116.0,VALID,0.0,
2019-09-21, 03:37:06,VALID,916.423,VALID,0.0,VALID,99.906,VALID,0.035,VALID,20.002,VALID,127.0,VALID,0.0,
2019-09-21, 03:38:06,VALID,916.437,VALID,0.0,VALID,99.872,VALID,0.038,VALID,19.976,VALID,125.0,VALID,0.0,
2019-09-21, 03:39:06,VALID,916.435,VALID,0.0,VALID,99.903,VALID,0.032,VALID,19.959,VALID,125.0,VALID,0.0,
2019-09-21, 03:40:06,VALID,916.464,VALID,0.0,VALID,99.887,VALID,0.044,VALID,19.939,VALID,124.0,VALID,0.0,